TimePST,TemperatureF,Dew PointF,Humidity,Sea Level PressureIn,VisibilityMPH,Wind Direction,Wind SpeedMPH,Gust SpeedMPH,PrecipitationIn,Events,Conditions,WindDirDegrees,DateUTC
12:15 AM,26.6,23.0,86,30.32,10.0,Calm,Calm,-,N/A,,Clear,0,2013-02-24 08:15:00
12:35 AM,26.6,23.0,86,30.33,10.0,Calm,Calm,-,N/A,,Clear,0,2013-02-24 08:35:00
12:55 AM,26.6,23.0,86,30.33,10.0,Calm,Calm,-,N/A,,Clear,0,2013-02-24 08:55:00
1:15 AM,26.6,23.0,86,30.33,10.0,Calm,Calm,-,N/A,,Clear,0,2013-02-24 09:15:00
1:35 AM,24.8,21.2,86,30.33,10.0,NNW,3.5,-,N/A,,Clear,340,2013-02-24 09:35:00
1:55 AM,24.8,21.2,86,30.34,10.0,Calm,Calm,-,N/A,,Clear,0,2013-02-24 09:55:00
2:15 AM,24.8,21.2,86,30.34,10.0,Calm,Calm,-,N/A,,Clear,0,2013-02-24 10:15:00
2:35 AM,24.8,21.2,86,30.33,10.0,Calm,Calm,-,N/A,,Clear,0,2013-02-24 10:35:00
2:55 AM,24.8,21.2,86,30.32,10.0,Calm,Calm,-,N/A,,Clear,0,2013-02-24 10:55:00
3:15 AM,24.8,21.2,86,30.32,10.0,Calm,Calm,-,N/A,,Clear,0,2013-02-24 11:15:00
3:35 AM,24.8,21.2,86,30.31,10.0,Calm,Calm,-,N/A,,Clear,0,2013-02-24 11:35:00
3:55 AM,23.0,21.2,93,30.32,10.0,Calm,Calm,-,N/A,,Clear,0,2013-02-24 11:55:00
4:15 AM,23.0,21.2,93,30.32,10.0,Calm,Calm,-,N/A,,Clear,0,2013-02-24 12:15:00
4:35 AM,23.0,21.2,93,30.32,10.0,Calm,Calm,-,N/A,,Clear,0,2013-02-24 12:35:00
4:55 AM,23.0,19.4,86,30.32,10.0,Calm,Calm,-,N/A,,Clear,0,2013-02-24 12:55:00
5:15 AM,23.0,19.4,86,30.33,10.0,Calm,Calm,-,N/A,,Clear,0,2013-02-24 13:15:00
5:35 AM,23.0,19.4,86,30.33,9.0,Calm,Calm,-,N/A,,Clear,0,2013-02-24 13:35:00
5:55 AM,23.0,19.4,86,30.33,10.0,Calm,Calm,-,N/A,,Clear,0,2013-02-24 13:55:00
6:15 AM,23.0,19.4,86,30.33,10.0,Calm,Calm,-,N/A,,Clear,0,2013-02-24 14:15:00
6:35 AM,23.0,19.4,86,30.33,10.0,Calm,Calm,-,N/A,,Clear,0,2013-02-24 14:35:00
6:55 AM,23.0,19.4,86,30.34,10.0,Calm,Calm,-,N/A,,Clear,0,2013-02-24 14:55:00
7:15 AM,23.0,19.4,86,30.34,10.0,Calm,Calm,-,N/A,,Clear,0,2013-02-24 15:15:00
7:35 AM,23.0,19.4,86,30.34,8.0,Calm,Calm,-,N/A,,Clear,0,2013-02-24 15:35:00
7:55 AM,23.0,21.2,93,30.35,9.0,Calm,Calm,-,N/A,,Clear,0,2013-02-24 15:55:00
8:15 AM,24.8,21.2,86,30.35,10.0,Calm,Calm,-,N/A,,Clear,0,2013-02-24 16:15:00
8:35 AM,26.6,23.0,86,30.35,10.0,Calm,Calm,-,N/A,,Clear,0,2013-02-24 16:35:00
8:55 AM,28.4,23.0,80,30.35,10.0,Calm,Calm,-,N/A,,Clear,0,2013-02-24 16:55:00
9:15 AM,30.2,24.8,80,30.35,10.0,Calm,Calm,-,N/A,,Clear,0,2013-02-24 17:15:00
9:35 AM,32.0,24.8,75,30.35,10.0,Calm,Calm,-,N/A,,Clear,0,2013-02-24 17:35:00
9:55 AM,33.8,26.6,75,30.35,10.0,SSW,3.5,-,N/A,,Clear,210,2013-02-24 17:55:00
10:15 AM,35.6,26.6,70,30.34,10.0,SSE,3.5,-,N/A,,Clear,160,2013-02-24 18:15:00
10:35 AM,37.4,26.6,65,30.33,10.0,WSW,3.5,-,N/A,,Clear,240,2013-02-24 18:35:00
10:55 AM,39.2,24.8,56,30.33,10.0,SW,3.5,-,N/A,,Clear,220,2013-02-24 18:55:00
11:15 AM,41.0,24.8,53,30.32,10.0,SSW,5.8,-,N/A,,Clear,210,2013-02-24 19:15:00
11:35 AM,44.6,24.8,46,30.31,10.0,SSW,4.6,-,N/A,,Clear,210,2013-02-24 19:35:00
11:55 AM,46.4,24.8,43,30.30,10.0,SW,5.8,-,N/A,,Clear,230,2013-02-24 19:55:00
12:15 PM,46.4,23.0,40,30.29,10.0,Calm,Calm,-,N/A,,Clear,0,2013-02-24 20:15:00
12:35 PM,48.2,23.0,37,30.28,10.0,Calm,Calm,-,N/A,,Clear,0,2013-02-24 20:35:00
12:55 PM,48.2,23.0,37,30.26,10.0,Calm,Calm,-,N/A,,Clear,0,2013-02-24 20:55:00
1:15 PM,50.0,23.0,35,30.25,10.0,Calm,Calm,-,N/A,,Clear,0,2013-02-24 21:15:00
1:35 PM,51.8,21.2,30,30.24,10.0,SSW,4.6,-,N/A,,Clear,210,2013-02-24 21:35:00
1:55 PM,53.6,23.0,30,30.23,10.0,Calm,Calm,-,N/A,,Clear,0,2013-02-24 21:55:00
2:15 PM,53.6,23.0,30,30.23,10.0,SSW,3.5,-,N/A,,Clear,200,2013-02-24 22:15:00
2:35 PM,53.6,23.0,30,30.22,10.0,SSW,6.9,-,N/A,,Clear,210,2013-02-24 22:35:00
2:55 PM,55.4,24.8,31,30.21,10.0,SW,4.6,-,N/A,,Clear,230,2013-02-24 22:55:00
3:15 PM,55.4,26.6,33,30.21,10.0,SW,6.9,-,N/A,,Clear,220,2013-02-24 23:15:00
3:35 PM,57.2,26.6,31,30.20,10.0,SW,8.1,-,N/A,,Clear,220,2013-02-24 23:35:00
3:55 PM,57.2,26.6,31,30.20,10.0,SSW,5.8,-,N/A,,Clear,210,2013-02-24 23:55:00
4:15 PM,57.2,26.6,31,30.19,10.0,WSW,5.8,-,N/A,,Clear,250,2013-02-25 00:15:00
4:35 PM,57.2,26.6,31,30.19,10.0,SW,9.2,-,N/A,,Clear,220,2013-02-25 00:35:00
4:55 PM,55.4,28.4,36,30.18,10.0,SW,3.5,-,N/A,,Clear,220,2013-02-25 00:55:00
5:15 PM,55.4,28.4,36,30.18,10.0,SSW,4.6,-,N/A,,Clear,210,2013-02-25 01:15:00
5:35 PM,53.6,28.4,38,30.18,10.0,WSW,4.6,-,N/A,,Clear,240,2013-02-25 01:35:00
5:55 PM,50.0,30.2,47,30.18,10.0,Calm,Calm,-,N/A,,Clear,0,2013-02-25 01:55:00
6:15 PM,46.4,30.2,53,30.18,10.0,NNW,3.5,-,N/A,,Clear,340,2013-02-25 02:15:00
6:35 PM,44.6,32.0,61,30.19,10.0,Calm,Calm,-,N/A,,Clear,0,2013-02-25 02:35:00
6:55 PM,41.0,30.2,65,30.19,10.0,NNE,3.5,-,N/A,,Clear,30,2013-02-25 02:55:00
7:15 PM,39.2,30.2,70,30.20,10.0,Calm,Calm,-,N/A,,Clear,0,2013-02-25 03:15:00
7:35 PM,39.2,30.2,70,30.20,10.0,Calm,Calm,-,N/A,,Clear,0,2013-02-25 03:35:00
7:55 PM,37.4,30.2,75,30.20,9.0,North,3.5,-,N/A,,Clear,10,2013-02-25 03:55:00
8:15 PM,35.6,30.2,81,30.20,9.0,NE,3.5,-,N/A,,Clear,40,2013-02-25 04:15:00
8:35 PM,35.6,28.4,75,30.20,10.0,NNE,3.5,-,N/A,,Clear,30,2013-02-25 04:35:00
8:55 PM,35.6,28.4,75,30.20,9.0,NNE,3.5,-,N/A,,Clear,30,2013-02-25 04:55:00
9:15 PM,33.8,28.4,81,30.21,9.0,Calm,Calm,-,N/A,,Clear,0,2013-02-25 05:15:00
9:35 PM,33.8,28.4,81,30.21,10.0,NNE,3.5,-,N/A,,Clear,30,2013-02-25 05:35:00
9:55 PM,33.8,28.4,81,30.22,10.0,Calm,Calm,-,N/A,,Clear,0,2013-02-25 05:55:00
10:15 PM,33.8,28.4,81,30.21,10.0,NNE,3.5,-,N/A,,Clear,20,2013-02-25 06:15:00
10:35 PM,32.0,28.4,87,30.22,10.0,NE,3.5,-,N/A,,Clear,50,2013-02-25 06:35:00
10:55 PM,32.0,28.4,87,30.21,10.0,NE,3.5,-,N/A,,Clear,40,2013-02-25 06:55:00
11:15 PM,32.0,28.4,87,30.21,8.0,Calm,Calm,-,N/A,,Clear,0,2013-02-25 07:15:00
11:35 PM,32.0,28.4,87,30.22,8.0,Calm,Calm,-,N/A,,Clear,0,2013-02-25 07:35:00
11:55 PM,32.0,28.4,87,30.22,9.0,NNE,4.6,-,N/A,,Clear,20,2013-02-25 07:55:00